Location: Cointrin
(46.2167°N, 6.1167°E)
Time: 16:18:56
(UTC+00:00)

CZ-4 R/B - Pass Details

Date: 08 February 2023
Orbit: 577 x 585 km, 97.7° (Epoch: 22 March)

Event Time Altitude Azimuth Distance (km) Brightness Sun altitude
Rises 17:44:49 0° 164° (SSE) 2,784 7.9 -9.9°
Reaches altitude 10° 17:46:57 10° 164° (SSE) 1,891 7.0 -10.2°
Maximum altitude 17:51:04 85° 75° (ENE) 590 4.4 -10.9°
Drops below altitude 10° 17:55:13 10° 348° (NNW) 1,913 7.1 -11.6°
Sets 17:57:23 0° 348° (NNW) 2,819 8.0 -12.0°
